Temperature
-1 -2 -2 -2 -2 -2 -2 -2 -2 -2 -2 -2 -2 -2 -2 -2 -2 -2 -2 -2 -2 -1 -1 -1 -1 -1 -1 -1 -1 -1 -1 -1 -1 -0 -0 0 0 0 1 1 1 2 2
-2 -2 -2 -2 -2 -2 -2 -2 -3 -3 -3 -3 -3 -3 -3 -3 -3 -3 -3 -2 -2 -2 -2 -2 -2 -2 -1 -1 -1 -1 -1 -1 -1 -1 -1 -0 -0 -0 -0 0 0 1 1
-3 -3 -3 -3 -3 -3 -3 -3 -3 -3 -3 -3 -3 -3 -3 -3 -3 -3 -3 -3 -3 -3 -2 -2 -2 -2 -2 -2 -2 -2 -2 -2 -2 -2 -1 -1 -1 -1 -1 -1 -0 -0 0
-3 -3 -4 -4 -4 -4 -4 -4 -4 -4 -4 -4 -4 -4 -4 -4 -4 -4 -4 -4 -4 -3 -3 -3 -2 -2 -2 -2 -2 -2 -2 -2 -2 -2 -2 -2 -2 -2 -2 -2 -1 -1 -1
-4 -4 -4 -4 -5 -5 -5 -5 -5 -5 -5 -5 -5 -5 -5 -5 -4 -4 -4 -4 -4 -4 -4 -3 -3 -3 -3 -3 -3 -3 -3 -3 -3 -3 -2 -2 -2 -2 -2 -2 -2 -2 -1
-4 -5 -5 -5 -5 -5 -5 -5 -5 -5 -5 -5 -5 -5 -5 -5 -5 -5 -5 -5 -5 -4 -4 -4 -4 -3 -3 -3 -3 -3 -3 -3 -3 -3 -3 -3 -3 -3 -3 -3 -3 -3 -3
-5 -5 -5 -6 -6 -6 -6 -6 -6 -6 -6 -6 -6 -6 -6 -6 -5 -5 -5 -5 -5 -5 -5 -4 -4 -4 -4 -3 -3 -4 -3 -3 -4 -3 -3 -3 -3 -3 -3 -3 -3 -3 -3
-6 -6 -6 -6 -6 -6 -6 -6 -6 -6 -6 -6 -6 -6 -6 -6 -6 -6 -6 -6 -5 -5 -5 -5 -5 -4 -4 -4 -4 -4 -4 -4 -4 -4 -4 -4 -4 -4 -4 -4 -4 -4 -4
-6 -7 -7 -7 -7 -7 -7 -7 -7 -7 -7 -7 -7 -7 -7 -6 -6 -6 -6 -6 -6 -6 -6 -5 -5 -5 -5 -5 -5 -5 -4 -4 -4 -4 -4 -4 -4 -4 -4 -4 -4 -4 -4
-7 -7 -7 -7 -7 -7 -7 -7 -7 -7 -7 -7 -7 -7 -7 -7 -7 -7 -7 -7 -7 -6 -6 -6 -6 -6 -6 -5 -5 -5 -5 -5 -5 -5 -5 -5 -5 -5 -5 -5 -5 -5 -5
-8 -8 -8 -8 -8 -8 -8 -8 -8 -8 -7 -7 -8 -7 -7 -7 -7 -7 -7 -7 -7 -7 -7 -7 -6 -6 -6 -6 -6 -6 -6 -6 -6 -6 -6 -6 -5 -5 -5 -5 -5 -5 -5
-8 -8 -8 -8 -8 -8 -8 -8 -8 -8 -8 -8 -8 -8 -8 -8 -8 -8 -8 -8 -7 -7 -7 -7 -7 -7 -7 -6 -7 -7 -6 -7 -7 -7 -7 -6 -6 -6 -6 -6 -6 -6 -6
-8 -9 -9 -9 -9 -9 -9 -8 -8 -8 -9 -8 -8 -8 -8 -8 -8 -8 -8 -8 -8 -8 -8 -8 -7 -7 -7 -7 -7 -7 -7 -7 -7 -7 -7 -7 -7 -6 -6 -6 -6 -6 -6
-9 -9 -9 -9 -9 -9 -9 -9 -9 -9 -9 -9 -9 -9 -9 -9 -9 -9 -9 -9 -8 -8 -8 -8 -8 -8 -8 -8 -8 -8 -8 -8 -8 -8 -8 -8 -7 -7 -7 -7 -7 -7 -7
-9 -10 -10 -10 -10 -10 -10 -9 -9 -9 -9 -9 -9 -9 -9 -9 -9 -9 -9 -9 -9 -8 -8 -8 -9 -9 -9 -8 -8 -8 -9 -8 -9 -8 -9 -9 -8 -8 -7 -7 -7 -8 -7
-10 -10 -10 -11 -11 -11 -10 -10 -10 -10 -10 -10 -10 -10 -10 -9 -9 -9 -9 -9 -9 -9 -9 -9 -9 -9 -9 -9 -9 -9 -9 -9 -9 -9 -9 -9 -9 -9 -8 -8 -8 -8 -8
-10 -11 -11 -11 -11 -11 -11 -11 -10 -10 -10 -10 -10 -10 -10 -10 -10 -10 -10 -10 -10 -10 -10 -10 -10 -10 -10 -10 -10 -10 -10 -10 -10 -10 -10 -9 -9 -9 -9 -9 -9 -9 -9
-11 -11 -11 -11 -11 -11 -11 -11 -11 -11 -11 -11 -10 -10 -10 -10 -10 -10 -10 -10 -10 -10 -10 -10 -10 -10 -10 -10 -10 -10 -10 -10 -10 -10 -10 -10 -10 -10 -10 -9 -9 -9 -9
-11 -11 -12 -12 -12 -12 -12 -12 -12 -12 -12 -11 -11 -11 -11 -11 -11 -11 -11 -11 -11 -11 -11 -11 -11 -11 -11 -11 -11 -11 -11 -11 -11 -11 -10 -10 -10 -10 -10 -10 -10 -10 -10
-12 -12 -12 -12 -12 -12 -12 -12 -12 -12 -12 -12 -12 -12 -11 -11 -11 -11 -11 -11 -11 -11 -11 -11 -11 -11 -11 -11 -11 -11 -11 -11 -11 -11 -11 -11 -11 -11 -11 -11 -11 -10 -10
-12 -12 -12 -12 -12 -12 -13 -13 -13 -13 -13 -12 -12 -12 -12 -12 -12 -12 -12 -12 -12 -12 -12 -12 -12 -12 -12 -12 -12 -12 -11 -11 -11 -11 -11 -11 -11 -11 -11 -11 -11 -11 -11
-12 -12 -13 -13 -13 -13 -13 -13 -13 -13 -13 -13 -13 -13 -13 -13 -12 -12 -12 -12 -12 -12 -12 -12 -12 -12 -12 -12 -12 -12 -12 -12 -12 -12 -12 -12 -12 -12 -12 -12 -12 -12 -11
-13 -13 -13 -13 -13 -13 -13 -13 -13 -13 -13 -13 -13 -13 -13 -13 -13 -13 -13 -12 -12 -13 -13 -13 -13 -12 -12 -12 -12 -12 -12 -12 -12 -12 -12 -12 -12 -12 -12 -12 -12 -12 -12
-13 -13 -13 -13 -13 -13 -14 -14 -13 -13 -13 -13 -13 -13 -13 -13 -13 -13 -13 -13 -13 -13 -13 -13 -13 -13 -13 -13 -13 -12 -12 -12 -12 -12 -12 -12 -12 -12 -12 -12 -12 -12 -12
-13 -14 -14 -14 -14 -14 -14 -14 -14 -14 -14 -14 -14 -14 -14 -14 -14 -13 -13 -13 -13 -13 -13 -13 -13 -13 -13 -13 -13 -13 -13 -13 -13 -13 -13 -13 -13 -13 -12 -12 -12 -12 -12
-14 -14 -14 -14 -14 -14 -14 -14 -14 -14 -14 -14 -14 -14 -14 -14 -14 -14 -14 -14 -14 -13 -13 -13 -13 -13 -13 -13 -13 -13 -13 -13 -13 -13 -13 -13 -13 -13 -13 -13 -13 -13 -13
Wind_Speed
5 5 5 5 5 6 6 6 6 5 6 6 6 6 6 6 5 5 5 5 6 6 5 6 6 6 5 5 4 4 5 5 7 6 4 3 4 4 6 7 7 7 7
5 4 5 5 5 5 6 6 5 6 6 7 6 6 6 6 6 6 6 6 6 7 7 6 7 6 6 5 5 6 5 5 6 7 5 4 5 4 5 5 6 6 6
4 4 4 4 5 6 6 6 6 6 6 6 6 7 7 7 7 7 7 7 7 8 7 8 7 7 7 6 6 6 5 5 5 6 6 5 4 3 4 5 5 5 6
4 4 5 5 5 6 5 5 5 6 6 6 7 7 7 7 7 7 7 7 8 8 8 8 8 8 8 8 7 7 6 6 5 5 5 5 4 3 3 4 4 4 4
4 4 5 4 4 4 5 5 5 6 6 6 7 7 7 7 7 8 8 8 8 8 8 8 8 9 10 9 7 6 6 5 5 5 5 5 4 3 4 4 5 5 5
4 4 4 3 4 4 4 5 6 6 6 6 7 7 7 7 9 11 9 8 8 8 8 7 7 8 10 11 11 10 8 7 6 6 6 6 6 5 4 4 5 5 5
3 3 3 4 4 4 5 5 6 6 6 6 7 7 8 9 11 12 12 8 8 7 7 7 6 7 8 6 8 9 9 10 10 8 7 7 6 5 5 5 6 6 7
2 3 3 4 4 4 4 5 6 5 6 7 7 7 8 9 11 11 11 7 7 7 8 8 8 7 8 8 7 7 7 7 8 7 7 7 7 6 6 6 6 6 6
3 4 4 3 4 4 5 6 5 5 6 6 7 7 7 8 10 10 10 6 6 7 7 8 8 8 10 10 7 7 6 6 7 8 9 9 9 9 6 3 3 4 6
4 4 4 3 4 5 5 5 5 5 6 6 6 6 7 7 9 10 10 6 6 6 6 7 9 9 9 9 7 6 7 6 4 4 6 6 5 5 6 5 5 5 5
3 4 3 3 4 4 4 4 4 5 4 5 6 6 6 7 9 9 9 6 6 6 6 5 5 9 10 10 8 5 7 5 3 3 4 4 3 3 4 4 4 5 5
3 3 3 3 3 3 3 4 3 3 4 4 4 5 5 6 7 8 10 9 8 6 5 5 5 9 9 9 7 6 6 4 2 2 3 4 4 4 4 4 4 4 6
3 3 4 4 4 4 3 3 3 3 3 4 4 4 4 4 5 8 8 8 9 6 5 7 8 8 6 5 5 5 3 2 2 3 3 4 4 3 3 3 3 4 5
3 3 3 3 4 4 4 3 3 3 3 4 4 4 4 4 4 5 5 6 7 6 5 5 5 4 3 3 3 2 2 3 3 3 3 3 3 3 3 2 3 3 3
3 3 3 3 3 4 4 4 4 4 5 5 5 5 5 5 6 7 5 4 4 4 3 1 1 1 2 2 2 2 2 2 2 2 2 3 3 3 3 2 3 3 3
3 3 3 3 3 3 3 4 6 5 6 7 7 6 5 6 6 6 5 5 4 2 0 1 1 2 2 3 3 2 2 2 2 2 3 3 3 3 3 3 3 3 3
3 3 2 3 3 3 3 3 4 5 6 6 6 6 5 4 4 4 3 2 1 1 1 2 2 2 2 2 2 2 3 3 2 3 3 3 3 3 3 3 4 3 4
3 3 3 2 2 2 3 3 3 3 4 4 5 6 5 4 3 3 2 1 1 1 1 2 2 2 2 2 2 2 3 3 2 3 3 3 3 3 4 4 4 4 4
3 2 2 2 2 2 3 3 3 3 3 3 3 4 4 3 3 3 2 1 1 2 2 2 2 2 2 3 3 3 3 3 3 3 3 3 3 3 4 4 4 6 5
3 5 4 3 2 2 3 3 3 3 3 3 3 3 2 2 1 1 2 1 1 2 2 2 2 3 3 3 3 3 3 3 3 3 3 3 3 3 4 4 4 4 4
2 4 6 4 3 3 3 3 3 3 3 3 3 4 4 2 1 1 1 1 1 1 2 2 3 3 3 3 3 3 4 4 3 3 3 3 3 3 4 4 4 4 4
2 2 3 3 3 3 3 3 3 3 3 3 3 4 6 3 2 2 2 2 2 2 2 2 3 3 3 3 3 3 4 4 4 3 3 3 4 4 4 4 4 4 4
2 2 3 3 3 5 5 3 3 3 3 4 3 3 3 3 3 2 2 2 2 2 2 2 3 3 4 4 4 4 5 5 5 4 4 4 4 4 4 4 5 5 5
1 2 2 3 3 3 3 4 4 4 4 4 4 3 3 3 3 3 3 3 3 3 3 3 3 4 5 6 6 6 7 7 7 6 6 5 5 5 5 5 5 6 6
1 2 2 2 3 3 3 4 4 4 4 4 4 4 4 4 4 4 3 3 3 3 4 5 5 5 6 7 8 8 9 11 10 8 7 6 6 5 5 5 5 5 5
2 2 2 2 3 3 3 4 4 4 4 4 4 4 4 4 4 4 4 3 4 4 5 5 5 6 8 8 9 10 11 11 11 11 8 5 5 5 5 5 5 5 5
Wind_Direction
222 223 223 230 229 216 213 219 217 223 222 223 224 226 231 233 232 233 238 241 243 249 250 244 246 241 238 234 236 238 243 249 261 278 282 282 271 272 285 288 290 290 282
226 225 227 233 226 215 219 224 221 224 225 225 223 225 231 234 232 231 237 241 240 244 246 244 247 243 240 234 234 240 243 248 253 269 279 276 267 261 268 277 290 294 283
223 224 232 236 223 221 223 225 223 224 229 228 224 226 231 233 234 236 235 238 239 240 242 241 244 240 247 241 239 242 246 253 252 256 268 274 274 267 275 287 286 296 288
223 223 229 236 232 228 227 228 226 226 227 227 229 231 232 234 237 239 241 240 240 243 244 242 242 238 243 239 241 241 242 246 251 251 259 268 273 268 262 277 287 297 288
228 234 240 245 242 243 235 231 233 232 234 233 232 235 234 234 236 234 235 238 239 242 247 245 245 248 254 249 248 238 234 240 252 256 259 270 271 267 262 275 280 293 282
229 238 246 247 246 245 246 237 233 234 235 234 235 236 239 242 249 252 250 242 243 242 247 249 249 253 258 261 261 259 252 243 242 252 259 258 262 264 267 270 274 286 283
250 245 247 244 246 248 251 249 238 236 238 238 239 239 241 244 251 253 253 249 243 241 241 244 252 252 258 248 258 262 262 262 257 252 254 257 254 250 252 262 264 268 275
266 262 252 252 257 259 255 253 250 245 238 239 244 242 245 249 253 254 256 253 246 242 239 237 242 243 246 243 241 246 253 258 259 258 252 254 253 245 240 249 254 273 280
277 276 265 257 263 262 259 257 255 254 250 243 245 241 243 249 255 256 258 244 243 245 245 241 241 239 248 252 243 241 252 264 272 269 269 268 267 268 258 249 251 259 278
283 285 279 269 262 262 263 265 266 260 257 249 252 245 243 247 253 255 255 240 240 244 245 243 250 249 251 254 240 233 243 253 258 272 281 276 270 264 261 239 233 244 271
301 302 297 291 283 276 277 276 266 263 259 247 251 255 249 250 253 254 254 240 236 243 246 242 244 254 256 259 261 241 248 264 257 267 279 270 262 251 248 246 238 239 252
321 320 317 316 311 306 297 292 277 257 251 245 243 255 252 252 256 255 256 255 255 245 248 245 247 255 257 261 266 261 270 286 263 257 264 266 260 258 258 255 257 262 258
341 336 331 332 331 323 311 297 283 256 244 250 237 243 253 253 255 264 262 261 264 258 249 257 260 263 268 263 262 263 270 249 237 249 257 265 266 262 271 283 285 286 289
348 341 337 341 337 334 324 304 278 254 247 245 245 248 252 255 252 250 243 249 257 259 254 252 262 270 275 273 259 257 247 237 243 253 269 276 279 271 270 270 275 285 291
355 349 346 344 336 333 327 311 295 269 254 249 241 240 243 246 253 258 258 250 243 248 250 210 197 220 239 247 248 247 242 244 257 259 266 274 281 280 285 284 271 265 268
358 350 346 342 338 338 337 335 325 310 298 289 283 275 268 268 274 274 274 277 281 281 184 183 208 228 240 245 245 254 256 252 256 264 268 270 276 279 285 287 270 253 262
349 339 341 343 342 341 341 338 333 337 332 319 302 296 291 286 287 290 290 284 268 205 185 207 224 232 240 258 258 256 263 266 265 264 265 269 273 276 278 282 271 262 264
346 333 342 341 337 338 339 335 326 326 329 331 326 312 302 290 288 287 286 292 234 242 224 226 234 243 248 256 261 272 278 277 271 266 268 270 269 274 278 277 270 261 266
346 341 344 346 345 347 347 348 342 336 335 332 334 334 333 313 307 307 304 258 233 247 247 247 245 246 254 261 263 265 269 274 272 269 269 269 268 271 276 276 277 275 277
348 341 350 351 350 353 352 349 345 342 341 341 338 331 346 5 351 316 303 283 265 262 261 257 259 257 256 255 257 258 261 265 268 268 267 265 266 265 269 275 276 278 278
349 343 343 347 346 342 342 337 332 332 333 335 331 330 337 357 352 343 332 325 305 286 276 268 267 267 261 257 254 255 258 262 260 262 265 266 267 271 274 274 279 281 281
347 342 343 340 339 337 336 328 327 329 332 331 331 334 341 353 351 336 322 317 316 306 293 283 274 270 265 257 252 254 259 263 262 258 264 270 270 268 269 273 279 282 278
346 342 339 335 333 328 331 334 335 333 329 328 326 330 334 335 330 323 314 311 310 308 302 289 282 282 276 269 263 255 254 258 261 255 255 264 266 266 264 264 268 273 277
335 326 322 323 325 323 322 324 326 324 323 323 323 321 321 320 318 317 316 315 311 308 300 291 281 278 280 282 276 269 262 262 261 250 245 249 256 261 258 261 266 268 272
315 312 311 310 312 314 315 317 318 318 318 316 315 315 315 316 315 314 315 314 311 308 302 292 283 280 280 278 277 276 276 278 275 262 247 243 248 251 254 257 260 266 270
314 313 311 310 307 306 307 307 309 311 310 309 310 311 309 306 305 306 308 307 305 304 302 297 287 282 281 280 281 282 284 284 281 278 269 251 242 247 251 256 258 261 265
Height
1453 1454 1456 1457 1458 1459 1460 1462 1463 1465 1466 1467 1469 1469 1470 1472 1473 1474 1474 1475 1476 1477 1477 1478 1479 1480 1481 1482 1483 1483 1483 1484 1482 1480 1480 1481 1481 1481 1481 1481 1482 1482 1482
1447 1448 1450 1451 1452 1453 1454 1456 1458 1459 1460 1462 1462 1463 1464 1465 1467 1468 1468 1469 1470 1471 1472 1473 1474 1475 1475 1476 1477 1477 1477 1477 1477 1475 1474 1475 1475 1475 1475 1475 1475 1476 1476
1442 1443 1444 1445 1446 1447 1448 1450 1452 1453 1454 1455 1456 1457 1458 1459 1460 1461 1463 1463 1464 1465 1466 1467 1468 1469 1469 1470 1471 1471 1471 1472 1472 1471 1469 1470 1470 1470 1470 1469 1469 1469 1470
1438 1439 1439 1439 1440 1442 1443 1444 1446 1447 1448 1449 1450 1451 1452 1453 1454 1455 1457 1457 1458 1459 1460 1461 1462 1463 1463 1464 1465 1465 1466 1466 1466 1466 1464 1464 1464 1464 1465 1464 1463 1463 1464
1432 1433 1433 1434 1435 1436 1437 1439 1440 1441 1442 1443 1444 1445 1445 1446 1448 1449 1450 1451 1452 1453 1454 1455 1455 1456 1457 1458 1459 1459 1460 1460 1460 1460 1459 1459 1458 1459 1459 1459 1458 1458 1458
1428 1428 1428 1429 1430 1431 1432 1433 1434 1435 1436 1437 1437 1438 1439 1440 1441 1443 1444 1445 1446 1447 1447 1448 1449 1450 1451 1452 1453 1454 1454 1454 1454 1454 1453 1452 1452 1453 1454 1454 1453 1452 1451
1422 1423 1423 1424 1425 1426 1426 1427 1427 1428 1430 1430 1431 1432 1432 1433 1435 1437 1438 1440 1440 1441 1441 1442 1442 1443 1445 1445 1446 1447 1447 1448 1449 1449 1447 1447 1447 1448 1449 1448 1448 1447 1446
1419 1419 1420 1420 1420 1420 1421 1421 1422 1423 1423 1424 1425 1425 1426 1427 1429 1430 1432 1433 1434 1434 1435 1436 1436 1437 1438 1438 1439 1440 1440 1441 1442 1442 1442 1442 1442 1442 1443 1443 1442 1441 1440
1415 1415 1415 1415 1415 1415 1415 1416 1416 1417 1417 1418 1418 1419 1420 1421 1423 1424 1426 1426 1427 1427 1428 1429 1430 1430 1431 1433 1434 1434 1434 1434 1435 1436 1437 1437 1437 1437 1437 1437 1437 1436 1434
1412 1411 1411 1411 1411 1410 1410 1410 1410 1411 1411 1412 1413 1414 1415 1415 1417 1418 1420 1420 1420 1421 1422 1423 1424 1425 1425 1427 1427 1427 1427 1428 1429 1429 1430 1430 1430 1430 1431 1432 1431 1431 1429
1409 1408 1407 1407 1406 1406 1405 1405 1405 1405 1406 1407 1408 1409 1410 1410 1411 1413 1414 1415 1415 1416 1416 1416 1417 1419 1420 1421 1421 1422 1422 1423 1423 1423 1423 1423 1423 1424 1424 1425 1425 1425 1425
1406 1405 1403 1402 1402 1401 1400 1400 1400 1401 1401 1402 1402 1403 1404 1405 1406 1407 1408 1410 1410 1411 1411 1411 1412 1413 1414 1415 1415 1416 1417 1417 1417 1417 1417 1417 1417 1418 1418 1419 1419 1419 1419
1402 1401 1400 1398 1398 1397 1397 1396 1396 1397 1397 1397 1397 1398 1399 1400 1401 1402 1403 1404 1405 1406 1406 1406 1407 1408 1409 1409 1410 1410 1411 1411 1411 1412 1411 1411 1412 1411 1412 1412 1412 1413 1413
1399 1398 1397 1395 1394 1394 1394 1393 1393 1392 1392 1392 1393 1393 1394 1395 1396 1397 1397 1399 1400 1400 1401 1401 1402 1403 1404 1404 1404 1405 1405 1405 1406 1406 1406 1406 1406 1406 1406 1407 1406 1407 1407
1398 1396 1395 1394 1393 1391 1391 1390 1389 1389 1389 1389 1389 1389 1390 1390 1391 1393 1394 1394 1395 1396 1396 1396 1397 1398 1398 1399 1399 1399 1400 1400 1401 1401 1401 1401 1401 1401 1401 1402 1402 1401 1401
1396 1395 1394 1392 1391 1390 1388 1387 1386 1387 1386 1386 1386 1387 1386 1387 1388 1389 1390 1391 1391 1392 1392 1391 1392 1393 1394 1394 1394 1395 1395 1396 1396 1396 1397 1397 1396 1396 1396 1396 1396 1396 1396
1396 1394 1393 1392 1390 1389 1387 1385 1384 1384 1384 1383 1383 1383 1384 1384 1385 1385 1386 1387 1387 1388 1388 1387 1388 1389 1389 1390 1390 1391 1391 1391 1392 1392 1392 1392 1392 1392 1392 1391 1391 1391 1391
1395 1394 1392 1391 1390 1388 1387 1385 1383 1382 1381 1380 1380 1380 1380 1381 1381 1382 1383 1383 1383 1384 1384 1384 1384 1385 1385 1386 1387 1387 1387 1387 1388 1388 1388 1388 1388 1388 1387 1387 1387 1386 1386
1395 1393 1392 1390 1389 1388 1386 1384 1383 1381 1380 1378 1377 1377 1377 1377 1378 1379 1379 1380 1380 1380 1380 1381 1381 1381 1382 1382 1383 1383 1383 1384 1384 1384 1384 1384 1384 1384 1383 1382 1382 1382 1381
1394 1393 1391 1390 1388 1387 1385 1384 1382 1381 1379 1378 1376 1376 1375 1374 1374 1375 1376 1376 1377 1377 1377 1377 1378 1378 1378 1379 1379 1379 1379 1380 1380 1380 1380 1380 1380 1379 1378 1378 1377 1376 1376
1394 1392 1391 1389 1388 1386 1385 1384 1382 1381 1379 1377 1376 1376 1374 1373 1373 1373 1373 1373 1374 1374 1374 1374 1375 1375 1375 1375 1375 1375 1375 1375 1376 1375 1375 1375 1375 1375 1374 1373 1372 1372 1372
1393 1391 1390 1389 1387 1386 1385 1384 1382 1380 1379 1377 1375 1374 1373 1372 1372 1371 1371 1371 1371 1371 1371 1371 1371 1371 1371 1371 1371 1371 1371 1371 1371 1371 1371 1371 1371 1371 1370 1369 1368 1368 1367
1392 1391 1390 1388 1387 1385 1384 1383 1381 1380 1378 1376 1374 1373 1372 1371 1370 1370 1369 1369 1369 1369 1368 1368 1368 1367 1368 1368 1368 1367 1367 1367 1367 1367 1367 1367 1367 1366 1366 1365 1364 1363 1363
1391 1390 1389 1387 1386 1384 1383 1382 1380 1379 1377 1375 1373 1372 1371 1370 1369 1368 1367 1366 1366 1366 1366 1365 1364 1364 1364 1364 1364 1364 1363 1364 1364 1363 1363 1363 1362 1362 1361 1361 1360 1359 1358
1391 1389 1388 1386 1385 1383 1382 1380 1379 1377 1376 1374 1372 1371 1369 1368 1367 1366 1365 1364 1363 1363 1363 1362 1361 1360 1360 1360 1360 1360 1360 1360 1360 1360 1359 1359 1358 1358 1357 1356 1355 1354 1354
1389 1388 1386 1385 1383 1382 1381 1379 1377 1376 1374 1372 1371 1369 1368 1366 1365 1364 1363 1362 1361 1360 1359 1359 1358 1357 1357 1356 1356 1356 1356 1356 1356 1356 1355 1354 1353 1352 1352 1351 1350 1350 1349